Regional Weather Roundup
Issued by NWS Little Rock, AR

Home | Current Version | Previous Version | Text Only | Print | Product List | Glossary Off
Versions: 1 2 3 4 5 6 7 8 9 10 11 12 13 14 15 16 17 18 19 20 21 22 23 24 25 26 27 28 29 30 31 32 33 34 35 36 37 38 39 40 41 42 43 44 45 46 47 48 49 50

000
ASUS44 KLZK 080105
RWRLZK

WEATHER ROUNDUP FOR ARKANSAS
NATIONAL WEATHER SERVICE LITTLE ROCK AR
700 PM CST SUN FEB 07 2016

NOTE: "FAIR" INDICATES FEW OR NO CLOUDS BELOW 12,000 FEET WITH NO
SIGNIFICANT WEATHER AND/OR OBSTRUCTIONS TO VISIBILITY.

ARZ001-003-010-029-080200-
NORTHWEST ARKANSAS

CITY           SKY/WX    TMP DP  RH WIND       PRES   REMARKS
FAYETTEVILLE   CLEAR     43  27  53 W8        30.08S
FORT SMITH     PTCLDY    48  24  39 W8        30.11R
HARRISON       PTCLDY    45  23  42 NW6       30.03S
BENTONVILLE    CLEAR     45  19  36 W6        30.08S
ROGERS         PTCLDY    46  22  38 W7        30.07S
SILOAM SPGS    CLEAR     43  21  42 W6        30.09S
HIGHFILL       CLEAR     44  23  43 W7        30.07S
SPRINGDALE     CLEAR     46  27  46 W6        30.09S
$$

ARZ004-005-016-080200-
NORTH CENTRAL ARKANSAS

CITY           SKY/WX    TMP DP  RH WIND       PRES   REMARKS
BATESVILLE     CLEAR     50  28  43 SW7       30.01S
FLIPPIN        MOCLDY    52  21  30 W8        30.01R
MTN HOME       PTCLDY    49  23  36 NW7       30.01R
$$

ARZ040-041-080200-
WEST CENTRAL ARKANSAS

CITY           SKY/WX    TMP DP  RH WIND       PRES   REMARKS
MENA           CLEAR     52  32  46 W6        30.09R
MOUNT IDA      CLEAR     54  30  40 CALM      30.05R
$$

ARZ009-017-025-026-028-080200-
NORTHEAST ARKANSAS

CITY           SKY/WX    TMP DP  RH WIND       PRES   REMARKS
CORNING        FAIR      48  30  49 W6        29.97S
JONESBORO      CLEAR     51  30  44 W13       29.98R
NEWPORT        CLEAR     50  29  44 W9        30.01R
WALNUT RIDGE   CLEAR     50  27  40 W6        29.98R
BLYTHEVILLE    CLEAR     48  35  60 SW12      29.97S
$$

ARZ022-023-033-042-044-080200-
CENTRAL ARKANSAS

CITY           SKY/WX    TMP DP  RH WIND       PRES   REMARKS
LITTLE ROCK    PTCLDY    53  30  41 NW6       30.05R
N LITTLE ROCK  PTCLDY    50  33  51 SW5       30.05R
JACKSONVILLE   CLEAR     47  30  51 W6        30.02S
SEARCY         CLEAR     52  31  44 W6        30.03F
HOT SPRINGS    CLEAR     53  31  42 NW6       30.06R
RUSSELLVILLE   MOCLDY    53  31  42 W9        30.04R
CLINTON        FAIR      45  32  61 CALM      30.03R
$$

ARZ036-080200-
EAST ARKANSAS

CITY           SKY/WX    TMP DP  RH WIND       PRES   REMARKS
WEST MEMPHIS   PTCLDY    51  33  50 SW6       30.00S
$$

ARZ050-053-066-070-073-080200-
SOUTHWEST ARKANSAS

CITY           SKY/WX    TMP DP  RH WIND       PRES   REMARKS
ARKADELPHIA    FAIR      49  33  54 SW6       30.07S
CAMDEN         CLEAR     48  27  43 CALM      30.08R
TEXARKANA      CLEAR     53  31  42 W5        30.10R
EL DORADO      CLEAR     47  31  53 SW5       30.08S
DE QUEEN       CLEAR     50  35  56 SW3       30.08R
$$

ARZ056-057-069-080200-
SOUTHEAST ARKANSAS

CITY           SKY/WX    TMP DP  RH WIND       PRES   REMARKS
PINE BLUFF     CLEAR     53  27  36 SW6       30.05R
STUTTGART      PTCLDY    50  34  53 SW9       30.04S
MONTICELLO     CLEAR     54  27  35 W5        30.06R

$$





USA.gov is the U.S. government's official web portal to all federal, state and local government web resources and services.